TimeEST,TemperatureF,Dew PointF,Humidity,Sea Level PressureIn,VisibilityMPH,Wind Direction,Wind SpeedMPH,Gust SpeedMPH,PrecipitationIn,Events,Conditions,WindDirDegrees,DateUTC
12:28 AM,55.4,51.8,88,29.90,8.0,South,12.7,19.6,N/A,,Scattered Clouds,190,2012-12-05 05:28:00
12:53 AM,55.9,52.0,87,29.93,9.0,South,13.8,19.6,N/A,,Mostly Cloudy,190,2012-12-05 05:53:00
1:53 AM,55.9,52.0,87,29.91,9.0,South,10.4,-,N/A,,Clear,190,2012-12-05 06:53:00
2:53 AM,55.9,52.0,87,29.88,9.0,South,4.6,-,N/A,,Mostly Cloudy,190,2012-12-05 07:53:00
3:53 AM,55.9,52.0,87,29.83,10.0,South,10.4,-,0.00,,Overcast,180,2012-12-05 08:53:00
4:53 AM,55.0,52.0,89,29.86,5.0,SW,4.6,-,0.03,Rain,Light Rain,220,2012-12-05 09:53:00
5:10 AM,55.4,50.0,82,29.84,7.0,WNW,16.1,21.9,0.01,Rain,Light Rain,300,2012-12-05 10:10:00
5:23 AM,53.6,46.4,77,29.83,10.0,WNW,6.9,-,0.01,,Overcast,300,2012-12-05 10:23:00
5:53 AM,53.1,46.0,77,29.89,10.0,WNW,8.1,-,0.01,,Overcast,290,2012-12-05 10:53:00
6:53 AM,51.1,45.0,80,29.90,10.0,WNW,5.8,-,0.01,,Overcast,300,2012-12-05 11:53:00
7:53 AM,51.1,41.0,68,29.91,10.0,West,9.2,20.7,N/A,,Mostly Cloudy,280,2012-12-05 12:53:00
9:53 AM,52.0,37.9,59,29.94,10.0,West,9.2,16.1,N/A,,Partly Cloudy,270,2012-12-05 14:53:00
10:53 AM,52.0,32.0,47,29.93,10.0,WNW,11.5,21.9,N/A,,Scattered Clouds,290,2012-12-05 15:53:00
11:53 AM,53.1,30.9,43,29.92,10.0,West,6.9,21.9,N/A,,Mostly Cloudy,260,2012-12-05 16:53:00
12:53 PM,52.0,30.0,43,29.91,10.0,West,11.5,19.6,N/A,,Mostly Cloudy,270,2012-12-05 17:53:00
1:53 PM,48.9,32.0,52,29.93,10.0,NW,12.7,19.6,N/A,,Mostly Cloudy,310,2012-12-05 18:53:00
2:53 PM,46.9,28.9,50,29.95,10.0,WNW,18.4,24.2,N/A,,Mostly Cloudy,300,2012-12-05 19:53:00
3:53 PM,44.1,27.0,51,29.99,10.0,WNW,16.1,21.9,N/A,,Overcast,290,2012-12-05 20:53:00
4:53 PM,41.0,21.9,47,30.03,10.0,WNW,13.8,31.1,N/A,,Overcast,290,2012-12-05 21:53:00
5:53 PM,39.9,21.9,49,30.05,10.0,NW,16.1,21.9,N/A,,Overcast,320,2012-12-05 22:53:00
6:53 PM,36.0,24.1,62,30.09,10.0,NNW,16.1,24.2,0.00,,Overcast,340,2012-12-05 23:53:00
7:53 PM,36.0,19.9,52,30.11,10.0,NW,16.1,23.0,N/A,,Overcast,310,2012-12-06 00:53:00
8:53 PM,34.0,15.1,46,30.13,10.0,NNW,17.3,26.5,N/A,,Overcast,330,2012-12-06 01:53:00
9:53 PM,33.1,15.1,48,30.14,10.0,NW,12.7,26.5,N/A,,Partly Cloudy,320,2012-12-06 02:53:00
10:53 PM,32.0,12.9,45,30.16,10.0,NW,17.3,31.1,N/A,,Partly Cloudy,310,2012-12-06 03:53:00
11:53 PM,30.9,14.0,50,30.18,10.0,NW,10.4,20.7,N/A,,Mostly Cloudy,320,2012-12-06 04:53:00